GPS BIIF-6 (39741 NORAD) Tracking and Keplerian Element Data

This shows tracking and keplerian element data for the satellite.

Feedback or suggestion? Click here.




ElementValue
Catalog39741
NameGPS BIIF-6
Epoch Orbit3354
Epoch Day349.2750566
Epoch Year2018
RAAN78.5588
Inclination55.7685
Eccentricity0.0014355
Argument of Perigee286.7844
Mean Anonmoly73.0768
Mean Motion2.00553997
Decay Rate-4.5E-07
L11 39741U 14026A 18349.27505660 -.00000045 00000-0 00000+0 0 9992
L22 39741 55.7685 78.5588 0014355 286.7844 73.0768 2.00553997 33546

Live tracking and technical data element details for GPS BIIF-6 (NORAD 39741). GPS BIIF-6 can be tracked NOW for your location showing map with azimuth and elevation plus other details from your city location.

Track the satellite on the map from your city or location and see movement details for azimuth, elevation, latitude, longitude, range, height, and movement on the map or in text.







IsCatalogInMostPopularTable: catalog: 39741, numindb: 79
Update: records affected: 1



GetName: 39741 GPS BIIF-6

Hit Count: updated at: Sun, 16 Dec 2018 11:18:07 GMT